Weather History for Rifle, CO

Change the Weather History Date:

Saturday, June 1, 2013

  Actual Average Record
Temperature  
Mean Temperature 55 °F 61 °F  
Max Temperature 74 °F 80 °F 93 °F (2002)
Min Temperature 36 °F 43 °F 28 °F (1937)
Degree Days  
Heating Degree Days 10 5  
Month to date heating degree days 10 5  
Since 1 June heating degree days 10 5  
Since 1 July heating degree days 6691 6571  
Cooling Degree Days 0 1  
Month to date cooling degree days 0 1  
Year to date cooling degree days 7 8  
Since 1 June cooling degree days 0 1  
Growing Degree Days 5 (Base 50)    
Moisture  
Dew Point 27 °F    
Average Humidity 40    
Maximum Humidity 64    
Minimum Humidity 16    
Precipitation  
Precipitation 0.00 in 0.04 in 0.40 in (1939)
Month to date precipitation 0.00 0.04  
Year to date precipitation 3.99 5.46  
Sea Level Pressure  
Sea Level Pressure 30.08 in    
Wind  
Wind Speed 4 mph (ESE)    
Max Wind Speed 12 mph    
Max Gust Speed 16 mph    
Visibility 10 miles    
Events      
T = Trace of Precipitation, MM = Missing Value Source: NWS Daily Summary

Daily Weather History Graph

Daily Weather History Graph

Search for Another Location

Airport:

Trip Planner

Search our weather history database for the weather conditions in past years. The results will help you decide how hot, cold, wet, or windy it might be!

Date:

Astronomy

Jun. 01, 2013 Rise Set
Actual Time 5:45 AM MDT 8:32 PM MDT
Civil Twilight 5:13 AM MDT 9:04 PM MDT
Nautical Twilight 4:33 AM MDT 9:44 PM MDT
Astronomical Twilight 3:48 AM MDT 10:30 PM MDT
Moon 1:41 AM MDT (6/1) 2:06 PM MDT (6/1)
Length of Visible Light 15h 50m
Length of Day
14h 47m
Last Quarter, 40% of the Moon is Illuminated
Jun 1
Last Quarter
Jun 8
New
Jun 16
First Quarter
Jun 23
Full
Jun 29
Last Quarter

Hourly Weather History & Observations

Time (MDT) Temp. Windchill Dew Point Humidity Pressure Visibility Wind Dir Wind Speed Gust Speed Precip Events Conditions
12:53 AM 53.1 °F - 21.0 °F 29% 30.07 in 10.0 mi SW 4.6 mph - N/A   Clear
1:53 AM 46.0 °F - 25.0 °F 44% 30.10 in 10.0 mi Calm Calm - N/A   Clear
2:53 AM 46.0 °F 44.8 °F 24.1 °F 42% 30.11 in 10.0 mi SSW 3.5 mph - N/A   Clear
3:53 AM 41.0 °F - 26.1 °F 55% 30.14 in 10.0 mi Calm Calm - N/A   Clear
4:53 AM 39.0 °F 35.7 °F 28.0 °F 65% 30.14 in 10.0 mi East 4.6 mph - N/A   Clear
5:53 AM 37.9 °F - 26.1 °F 62% 30.17 in 10.0 mi Calm Calm - N/A   Clear
6:53 AM 41.0 °F 38.0 °F 27.0 °F 57% 30.17 in 10.0 mi East 4.6 mph - N/A   Clear
7:53 AM 48.0 °F - 30.0 °F 50% 30.17 in 10.0 mi Calm Calm - N/A   Clear
8:53 AM 53.1 °F - 27.0 °F 37% 30.17 in 10.0 mi ENE 4.6 mph - N/A   Clear
9:53 AM 57.0 °F - 25.0 °F 29% 30.16 in 10.0 mi Variable 3.5 mph - N/A   Clear
10:53 AM 61.0 °F - 24.1 °F 24% 30.14 in 10.0 mi Variable 3.5 mph - N/A   Clear
11:53 AM 64.0 °F - 25.0 °F 23% 30.13 in 10.0 mi Calm Calm - N/A   Clear
12:53 PM 68.0 °F - 26.1 °F 21% 30.08 in 10.0 mi North 6.9 mph - N/A   Clear
1:53 PM 69.1 °F - 26.1 °F 20% 30.08 in 10.0 mi North 8.1 mph - N/A   Clear
2:53 PM 72.0 °F - 27.0 °F 19% 30.05 in 10.0 mi NNE 8.1 mph - N/A   Clear
3:53 PM 71.1 °F - 26.1 °F 19% 30.05 in 10.0 mi Variable 4.6 mph - N/A   Clear
4:53 PM 73.0 °F - 26.1 °F 17% 30.03 in 10.0 mi Calm Calm - N/A   Clear
5:53 PM 73.0 °F - 26.1 °F 17% 30.01 in 10.0 mi ENE 4.6 mph - N/A   Clear
6:53 PM 73.0 °F - 25.0 °F 17% 29.99 in 10.0 mi Calm Calm - N/A   Clear
7:53 PM 71.1 °F - 26.1 °F 19% 29.97 in 10.0 mi SE 3.5 mph - N/A   Clear
8:53 PM 64.0 °F - 28.9 °F 27% 29.99 in 10.0 mi WSW 5.8 mph - N/A   Clear
9:53 PM 57.9 °F - 30.0 °F 35% 30.01 in 10.0 mi South 4.6 mph - N/A   Clear
10:53 PM 53.1 °F - 30.9 °F 43% 30.03 in 10.0 mi SE 3.5 mph - N/A   Clear
11:53 PM 54.0 °F - 30.0 °F 40% 30.03 in 10.0 mi East 4.6 mph - N/A   Clear